CBERS 1 DEB

Satellite information

Favourite Embed

Satellite Type and Status

DEBRISIN ORBIT

Key statistics

Satellite CBERS 1 DEB at a glance.

Uptime

9398

Days in orbit

Revolutions

≈ 14.6

Per day

Orbit

SSO

Sun Synchronous Orbit

Inclination

98.7

Latest

Satellite identification and parameters

Extended collection of information and parameters for CBERS 1 DEB.

Object identification

Identified? True

Debris? True

Object name: CBERS 1 DEB

International designator: 1999-057NY

Object number (NORAD): 30789

Object ID (CCSDS): 30789

Country: PEOPLES REPUBLIC OF CHINA/BRAZIL (CHBZ)

Current information (Y/N): Y

RCS size: SMALL

Orbital parameters

Period: 98.868 minutes

Inclination: 98.6637 deg

SMA: 7082.675 km

Apoapsis: 709.523 km

Periapsis: 699.558 km

RAAN: 216.7349 deg

Eccentricy: 0.0007035

Argument of periapsis: 63.9655 deg

Mean anomaly: 90.0604 deg

Mean motion: 14.56487454 rev/day

Mean motion (dot): 0.0000258 rev/day2

B* drag term: 0.00059105 1/REarth

Two-line elements (TLE)

Creation date: July 6, 2025, 6:05 p.m.

Reference frame: TEME

Reference center: EARTH

Epoch: July 6, 2025, 1:04 p.m. UTC

TLE line 0: 0 CBERS 1 DEB

TLE line 1: 1 30789U 99057NY 25187.54485168 .00002580 00000-0 59105-3 0 9999

TLE line 2: 2 30789 98.6637 216.7349 0007035 63.9655 90.0604 14.56487454965938

Live tracking on map

Real-time ground track for satellite CBERS 1 DEB.

In-orbit conjunctions

A list of the most updated potential collisions computed for object CBERS 1 DEB.

Target Orbit TCA Probability of collision Miss distance Type
CZ-6A DEB LEO 2024-12-03 18:44:12 0.0001070477 774.0 (m) DEBRIS
OV2-1 LEO 2024-11-10 22:41:06 0.0002439378 437.0 (m) PAYLOAD
NOAA 16 DEB SSO 2024-08-14 16:41:12 0.0001063857 265.0 (m) DEBRIS
RUBIN 3/SL-8 SSO 2024-07-11 20:58:45 0.0002081891 508.0 (m) PAYLOAD

Associated space launch

The CBERS (China Brazil Earth Resources Satellite) or ZY 1 (Zi Yuan) satellites are designed for global coverage and include cameras to make optical observations and a data collecting system to gather data on the environment. They are unique systems due to the use of on-board sensors which combine features that are especially designed to resolve the broad range of space and time scales involved in the monitoring and preservation of the ecosystem. They are operated jointly by the China Centre for Resources Satellite Data and Application (CRESDA) and the Brazilian INPE (Instituto Nacional de Pesquisas Espaciais, National Institute of Space Research).

CBERS 1 DEB was lifted into orbit during the mission ‘Long March 4B | Zi Yuan 1-1’, on board a Long March 4B space rocket.

The launch took place on Oct. 14, 1999, 3:15 a.m. from Launch Complex 7.

For more information about the launch, click the button.

Launch to space Long March 4B | Zi Yuan 1-1
Long March 4B | Zi Yuan 1-1

Agency: N/A

Status: Launch Successful

Launch date: Oct. 14, 1999, 3:15 a.m. UTC

Rocket: Long March 4B

Launch pad: Launch Complex 7

Location: Taiyuan Satellite Launch Center, People's Republic of China

...

Latest news about this satellite

There are no fresh news available about this satellite. Check back as we update our databases every day.


Newsletter sign-up

Weekly statistics, charts and insights to help you stay on top of the space industry.